Location: B?dimalle
(17.1788°N, 80.5377°E)
Time: 08:30:54
(UTC+00:00)

Courier 1B Rocket - Pass Details

Date: 12 December 2025
Orbit: 920 x 1201 km, 28.2° (Epoch: 24 January)

Event Time Altitude Azimuth Distance (km) Brightness Sun altitude
Exits shadow 23:12:06 54° 273° (W) 1,163 5.0 -24.6°
Maximum altitude 23:13:37 74° 207° (SSW) 991 4.9 -24.2°
Drops below altitude 10° 23:19:54 10° 122° (ESE) 2,622 8.3 -22.8°
Sets 23:22:28 0° 120° (ESE) 3,551 9.3 -22.2°
